Tracking 29591 objects as of 19-Sep-2024
HD Live streaming from Space Station
objects crossing your sky now

CRRES DEB (CANISTER)

Track CRRES DEB (CANISTER) now!


NORAD ID: 21588
Int'l Code: 1990-065D
Perigee: 367.2 km
Apogee: 32,295.2 km
Inclination: 18.2 °
Period: 567.4 minutes
Semi major axis: 22702 km
RCS: 0.1213 m2 (medium)
Launch date: July 25, 1990
Source: United States (US)
Launch site: AIR FORCE EASTERN TEST RANGE (AFETR)

Note: This is SATELLITE DEBRIS
Your satellite tracking list
Your tracking list is empty




NASA's NSSDC Master Catalog

Two Line Element Set (TLE):
1 21588U 90065D   24261.96158098  .00000430  00000-0  62331-3 0  9990
2 21588  18.2408  91.6649 7031910 331.4905   3.5970  2.53805295109980
Source of the keplerian elements: AFSPC